Regional Weather Roundup
Issued by NWS New Orleans/Baton Rouge, LA

Home | Current Version | Previous Version | Graphics & Text | Print | Product List | Glossary On
Versions: 1 2 3 4 5 6 7 8 9 10 11 12 13 14 15 16 17 18 19 20 21 22 23 24 25 26 27 28 29 30 31 32 33 34 35 36 37 38 39 40 41 42 43 44 45 46 47 48 49 50
557
ASUS44 KLIX 242110
RWRLIX
NEW ORLEANS REGIONAL WEATHER ROUNDUP
NATIONAL WEATHER SERVICE NEW ORLEANS LA
400 PM CDT FRI OCT 24 2014

NOTE: "FAIR" INDICATES FEW OR NO CLOUDS BELOW 12,000 FEET WITH NO
      SIGNIFICANT WEATHER AND/OR OBSTRUCTIONS TO VISIBILITY.
      SKY/WX - SKY CONDITION AND SIGNIFICANT WEATHER.
      TMP - AIR TEMPERATURE.     DP    - DEWPOINT TEMPERATURE.
      RH  - RELATIVE HUMIDITY.   PRES  - PRESSURE.
      HI  - HEAT INDEX.          WCI   - WIND CHILL INDEX.

*  THESE STATIONS ARE NOT NWS OR FAA STATIONS AND ARE NOT UNDER
   NWS QUALITY CONTROL.

LAZ038-040-048-061>063-065>067-069-242200-
SOUTHEAST LOUISIANA

CITY           SKY/WX    TMP DP  RH WIND       PRES   REMARKS
N.O. AUDUBON     N/A     75 N/A N/A MISG        N/A
N.O. INTL ARPT MOSUNNY   76  48  37 N6        30.05S
N.O. LAKEFRONT SUNNY     73  52  47 W10       30.05S
N.O. DOWNTOWN*   N/A     73  45  35 N9        30.05S
SLIDELL        SUNNY     78  44  29 N7        30.03S
BATON ROUGE    SUNNY     77  45  32 NE7       30.06S
BOOTHVILLE     SUNNY     72  54  53 N8        30.03S
BELLE CHASSE   MOSUNNY   76  44  32 N6        30.04S
BOGALUSA*        N/A     78  41  27 N10       30.06S
NEW ROADS*       N/A     74  51  44 NW7       30.07S
GONZALES*        N/A     75  44  32 N8        30.04F
HAMMOND*       SUNNY     79  34  19 NW6       30.06S
HOUMA*         SUNNY     77  43  29 N10       30.04S
PORT FOURCHON* CLEAR     75  46  35 N9        30.06S

$$

MSZ070-080>082-242200-
SOUTHERN MISSISSIPPI

CITY           SKY/WX    TMP DP  RH WIND       PRES   REMARKS
MCCOMB         SUNNY     76  41  28 N9        30.06F
GULFPORT       SUNNY     78  43  28 N10       30.01F
BILOXI         SUNNY     77  42  28 NE9       30.01F
PASCAGOULA     SUNNY     78  42  27 NE7       30.01S
STENNIS ARPT*  SUNNY     79  36  21 N10       30.03S

$$

COASTAL OBSERVATIONS
LAKE AND NEARSHORE STATIONS

STATION/POSITION TIME  TEMP    WIND        PRES    WAVE
                       AIR SEA DIR/SP/G            HT/PER
                 (UTC) (F)     (DEG/KT/KT) (MB)    (FT/S)
PASCAGOULA       2100   78     360/  8/ 11 1015.5
WAVELAND YACHT   2100   74     360/  7/ 10 1016.0
GRAND ISLE       2100   75 73  350/  6/  9 1017.4
SOUTHWEST PASS   2100   77 81              1016.9
NEW CANAL        2100   72 71  290/  3/  6 1017.9
SHELL BEACH      2100   71 68  320/  8/ 10 1016.9

OFFSHORE STATIONS

STATION/POSITION TIME  TEMP    WIND        PRES    WAVE
                       AIR SEA DIR/SP/G            HT/PER
                 (UTC) (F)     (DEG/KT/KT) (MB)    (FT/S)
64 S DAUPHIN ISL 2048   71 79  360/ 10/ 16 1016.7    2/ 6

$$




USA.gov is the U.S. government's official web portal to all federal, state and local government web resources and services.